Year,Month,Day,Hour,Minute,Value (Times are PST for temperature in C)
2013,05,01,00,00,7.40
2013,05,01,00,01,7.40
2013,05,01,00,02,7.40
2013,05,01,00,03,7.30
2013,05,01,00,04,7.30
2013,05,01,00,05,7.30
2013,05,01,00,06,7.30
2013,05,01,00,07,7.30
2013,05,01,00,08,7.30
2013,05,01,00,09,7.30
2013,05,01,00,10,7.30
2013,05,01,00,11,7.30
2013,05,01,00,12,7.20
2013,05,01,00,13,7.20
2013,05,01,00,14,7.10
2013,05,01,00,15,7.10
2013,05,01,00,16,7.10
2013,05,01,00,17,7.00
2013,05,01,00,18,7.00
2013,05,01,00,19,7.00
2013,05,01,00,20,7.00
2013,05,01,00,21,6.90
2013,05,01,00,22,6.90
2013,05,01,00,23,6.90
2013,05,01,00,24,6.90
2013,05,01,00,25,6.90
2013,05,01,00,26,6.90
2013,05,01,00,27,6.90
2013,05,01,00,28,6.90
2013,05,01,00,29,6.90
2013,05,01,00,30,6.80
2013,05,01,00,31,6.80
2013,05,01,00,32,6.80
2013,05,01,00,33,6.80
2013,05,01,00,34,6.80
2013,05,01,00,35,6.80
2013,05,01,00,36,6.80
2013,05,01,00,37,6.80
2013,05,01,00,38,6.80
2013,05,01,00,39,6.80
2013,05,01,00,40,6.80
2013,05,01,00,41,6.80
2013,05,01,00,42,6.80
2013,05,01,00,43,6.80
2013,05,01,00,44,6.80
2013,05,01,00,45,6.70
2013,05,01,00,46,6.70
2013,05,01,00,47,6.60
2013,05,01,00,48,6.60
2013,05,01,00,49,6.60
2013,05,01,00,50,6.60
2013,05,01,00,51,6.50
2013,05,01,00,52,6.40
2013,05,01,00,53,6.40
2013,05,01,00,54,6.40
2013,05,01,00,55,6.40
2013,05,01,00,56,6.40
2013,05,01,00,57,6.40
2013,05,01,00,58,6.30
2013,05,01,00,59,6.30
2013,05,01,01,00,6.30
2013,05,01,01,01,6.30
2013,05,01,01,02,6.30
2013,05,01,01,03,6.20
2013,05,01,01,04,6.20
2013,05,01,01,05,6.20
2013,05,01,01,06,6.20
2013,05,01,01,07,6.10
2013,05,01,01,08,6.10
2013,05,01,01,09,6.10
2013,05,01,01,10,6.00
2013,05,01,01,11,6.00
2013,05,01,01,12,6.00
2013,05,01,01,13,5.90
2013,05,01,01,14,5.90
2013,05,01,01,15,5.90
2013,05,01,01,16,5.80
2013,05,01,01,17,5.80
2013,05,01,01,18,5.80
2013,05,01,01,19,5.70
2013,05,01,01,20,5.70
2013,05,01,01,21,5.70
2013,05,01,01,22,5.70
2013,05,01,01,23,5.60
2013,05,01,01,24,5.60
2013,05,01,01,25,5.50
2013,05,01,01,26,5.50
2013,05,01,01,27,5.40
2013,05,01,01,28,5.30
2013,05,01,01,29,5.30
2013,05,01,01,30,5.30
2013,05,01,01,31,5.20
2013,05,01,01,32,5.10
2013,05,01,01,33,5.10
2013,05,01,01,34,5.10
2013,05,01,01,35,5.00
2013,05,01,01,36,4.90
2013,05,01,01,37,4.90
2013,05,01,01,38,4.90
2013,05,01,01,39,4.80
2013,05,01,01,40,4.80
2013,05,01,01,41,4.70
2013,05,01,01,42,4.70
2013,05,01,01,43,4.60
2013,05,01,01,44,4.60
2013,05,01,01,45,4.60
2013,05,01,01,46,4.60
2013,05,01,01,47,4.50
2013,05,01,01,48,4.50
2013,05,01,01,49,4.50
2013,05,01,01,50,4.40
2013,05,01,01,51,4.40
2013,05,01,01,52,4.30
2013,05,01,01,53,4.30
2013,05,01,01,54,4.20
2013,05,01,01,55,4.20
2013,05,01,01,56,4.20
2013,05,01,01,57,4.10
2013,05,01,01,58,4.10
2013,05,01,01,59,4.10
2013,05,01,02,00,4.00
2013,05,01,02,01,4.00
2013,05,01,02,02,4.00
2013,05,01,02,03,4.00
2013,05,01,02,04,3.90
2013,05,01,02,05,3.90
2013,05,01,02,06,3.80
2013,05,01,02,07,3.80
2013,05,01,02,08,3.80
2013,05,01,02,09,3.80
2013,05,01,02,10,3.80
2013,05,01,02,11,3.80
2013,05,01,02,12,3.80
2013,05,01,02,13,3.70
2013,05,01,02,14,3.70
2013,05,01,02,15,3.60
2013,05,01,02,16,3.60
2013,05,01,02,17,3.50
2013,05,01,02,18,3.50
2013,05,01,02,19,3.40
2013,05,01,02,20,3.40
2013,05,01,02,21,3.30
2013,05,01,02,22,3.30
2013,05,01,02,23,3.30
2013,05,01,02,24,3.30
2013,05,01,02,25,3.30
2013,05,01,02,26,3.20
2013,05,01,02,27,3.20
2013,05,01,02,28,3.20
2013,05,01,02,29,3.10
2013,05,01,02,30,3.10
2013,05,01,02,31,3.10
2013,05,01,02,32,3.10
2013,05,01,02,33,3.10
2013,05,01,02,34,3.10
2013,05,01,02,35,3.10
2013,05,01,02,36,3.10
2013,05,01,02,37,3.10
2013,05,01,02,38,3.10
2013,05,01,02,39,3.00
2013,05,01,02,40,2.90
2013,05,01,02,41,2.90
2013,05,01,02,42,2.90
2013,05,01,02,43,2.90
2013,05,01,02,44,2.90
2013,05,01,02,45,2.90
2013,05,01,02,46,2.90
2013,05,01,02,47,2.90
2013,05,01,02,48,2.90
2013,05,01,02,49,2.90
2013,05,01,02,50,2.90
2013,05,01,02,51,2.80
2013,05,01,02,52,2.80
2013,05,01,02,53,2.80
2013,05,01,02,54,2.80
2013,05,01,02,55,2.70
2013,05,01,02,56,2.70
2013,05,01,02,57,2.70
2013,05,01,02,58,2.70
2013,05,01,02,59,2.70
2013,05,01,03,00,2.70
2013,05,01,03,01,2.70
2013,05,01,03,02,2.70
2013,05,01,03,03,2.70
2013,05,01,03,04,2.60
2013,05,01,03,05,2.60
2013,05,01,03,06,2.60
2013,05,01,03,07,2.60
2013,05,01,03,08,2.60
2013,05,01,03,09,2.60
2013,05,01,03,10,2.50
2013,05,01,03,11,2.50
2013,05,01,03,12,2.50
2013,05,01,03,13,2.50
2013,05,01,03,14,2.50
2013,05,01,03,15,2.50
2013,05,01,03,16,2.50
2013,05,01,03,17,2.50
2013,05,01,03,18,2.40
2013,05,01,03,19,2.40
2013,05,01,03,20,2.40
2013,05,01,03,21,2.40
2013,05,01,03,22,2.40
2013,05,01,03,23,2.40
2013,05,01,03,24,2.40
2013,05,01,03,25,2.40
2013,05,01,03,26,2.30
2013,05,01,03,27,2.30
2013,05,01,03,28,2.30
2013,05,01,03,29,2.30
2013,05,01,03,30,2.20
2013,05,01,03,31,2.20
2013,05,01,03,32,2.20
2013,05,01,03,33,2.20
2013,05,01,03,34,2.20
2013,05,01,03,35,2.20
2013,05,01,03,36,2.20
2013,05,01,03,37,2.20
2013,05,01,03,38,2.20
2013,05,01,03,39,2.20
2013,05,01,03,40,2.10
2013,05,01,03,41,2.10
2013,05,01,03,42,2.10
2013,05,01,03,43,2.10
2013,05,01,03,44,2.10
2013,05,01,03,45,2.10
2013,05,01,03,46,2.10
2013,05,01,03,47,2.10
2013,05,01,03,48,2.10
2013,05,01,03,49,2.10
2013,05,01,03,50,2.10
2013,05,01,03,51,2.10
2013,05,01,03,52,2.10
2013,05,01,03,53,2.10
2013,05,01,03,54,2.00
2013,05,01,03,55,2.00
2013,05,01,03,56,2.00
2013,05,01,03,57,2.00
2013,05,01,03,58,2.00
2013,05,01,03,59,2.00
2013,05,01,04,00,1.90
2013,05,01,04,01,1.90
2013,05,01,04,02,1.90
2013,05,01,04,03,1.90
2013,05,01,04,04,1.90
2013,05,01,04,05,1.90
2013,05,01,04,06,1.90
2013,05,01,04,07,1.90
2013,05,01,04,08,1.90
2013,05,01,04,09,1.80
2013,05,01,04,10,1.80
2013,05,01,04,11,1.80
2013,05,01,04,12,1.80
2013,05,01,04,13,1.80
2013,05,01,04,14,1.80
2013,05,01,04,15,1.80
2013,05,01,04,16,1.70
2013,05,01,04,17,1.70
2013,05,01,04,18,1.70
2013,05,01,04,19,1.70
2013,05,01,04,20,1.60
2013,05,01,04,21,1.60
2013,05,01,04,22,1.60
2013,05,01,04,23,1.60
2013,05,01,04,24,1.60
2013,05,01,04,25,1.60
2013,05,01,04,26,1.60
2013,05,01,04,27,1.50
2013,05,01,04,28,1.50
2013,05,01,04,29,1.50
2013,05,01,04,30,1.50
2013,05,01,04,31,1.50
2013,05,01,04,32,1.50
2013,05,01,04,33,1.50
2013,05,01,04,34,1.50
2013,05,01,04,35,1.50
2013,05,01,04,36,1.50
2013,05,01,04,37,1.50
2013,05,01,04,38,1.50
2013,05,01,04,39,1.50
2013,05,01,04,40,1.50
2013,05,01,04,41,1.50
2013,05,01,04,42,1.50
2013,05,01,04,43,1.50
2013,05,01,04,44,1.50
2013,05,01,04,45,1.50
2013,05,01,04,46,1.60
2013,05,01,04,47,1.60
2013,05,01,04,48,1.60
2013,05,01,04,49,1.60
2013,05,01,04,50,1.60
2013,05,01,04,51,1.50
2013,05,01,04,52,1.50
2013,05,01,04,53,1.50
2013,05,01,04,54,1.50
2013,05,01,04,55,1.50
2013,05,01,04,56,1.40
2013,05,01,04,57,1.40
2013,05,01,04,58,1.40
2013,05,01,04,59,1.40
2013,05,01,05,00,1.30
2013,05,01,05,01,1.30
2013,05,01,05,02,1.30
2013,05,01,05,03,1.30
2013,05,01,05,04,1.30
2013,05,01,05,05,1.30
2013,05,01,05,06,1.30
2013,05,01,05,07,1.30
2013,05,01,05,08,1.30
2013,05,01,05,09,1.30
2013,05,01,05,10,1.30
2013,05,01,05,11,1.30
2013,05,01,05,12,1.30
2013,05,01,05,13,1.30
2013,05,01,05,14,1.30
2013,05,01,05,15,1.30
2013,05,01,05,16,1.20
2013,05,01,05,17,1.20
2013,05,01,05,18,1.20
2013,05,01,05,19,1.20
2013,05,01,05,20,1.20
2013,05,01,05,21,1.20
2013,05,01,05,22,1.20
2013,05,01,05,23,1.20
2013,05,01,05,24,1.20
2013,05,01,05,25,1.10
2013,05,01,05,26,1.10
2013,05,01,05,27,1.20
2013,05,01,05,28,1.10
2013,05,01,05,29,1.10
2013,05,01,05,30,1.10
2013,05,01,05,31,1.10
2013,05,01,05,32,1.10
2013,05,01,05,33,1.10
2013,05,01,05,34,1.10
2013,05,01,05,35,1.10
2013,05,01,05,36,1.10
2013,05,01,05,37,1.00
2013,05,01,05,38,1.00
2013,05,01,05,39,1.00
2013,05,01,05,40,1.00
2013,05,01,05,41,1.00
2013,05,01,05,42,0.90
2013,05,01,05,43,0.90
2013,05,01,05,44,0.90
2013,05,01,05,45,0.90
2013,05,01,05,46,0.90
2013,05,01,05,47,1.00
2013,05,01,05,48,1.00
2013,05,01,05,49,1.00
2013,05,01,05,50,1.00
2013,05,01,05,51,1.00
2013,05,01,05,52,1.00
2013,05,01,05,53,1.00
2013,05,01,05,54,1.00
2013,05,01,05,55,1.00
2013,05,01,05,56,1.00
2013,05,01,05,57,1.00
2013,05,01,05,58,1.00
2013,05,01,05,59,1.00
2013,05,01,06,00,1.00
2013,05,01,06,01,1.00
2013,05,01,06,02,0.90
2013,05,01,06,03,0.90
2013,05,01,06,04,0.90
2013,05,01,06,05,0.90
2013,05,01,06,06,0.90
2013,05,01,06,07,0.90
2013,05,01,06,08,0.90
2013,05,01,06,09,0.90
2013,05,01,06,10,1.00
2013,05,01,06,11,1.00
2013,05,01,06,12,1.00
2013,05,01,06,13,1.00
2013,05,01,06,14,1.00
2013,05,01,06,15,1.00
2013,05,01,06,16,1.10
2013,05,01,06,17,1.10
2013,05,01,06,18,1.10
2013,05,01,06,19,1.10
2013,05,01,06,20,1.10
2013,05,01,06,21,1.20
2013,05,01,06,22,1.20
2013,05,01,06,23,1.20
2013,05,01,06,24,1.30
2013,05,01,06,25,1.30
2013,05,01,06,26,1.30
2013,05,01,06,27,1.30
2013,05,01,06,28,1.40
2013,05,01,06,29,1.40
2013,05,01,06,30,1.50
2013,05,01,06,31,1.50
2013,05,01,06,32,1.60
2013,05,01,06,33,1.60
2013,05,01,06,34,1.70
2013,05,01,06,35,1.70
2013,05,01,06,36,1.70
2013,05,01,06,37,1.80
2013,05,01,06,38,1.80
2013,05,01,06,39,1.80
2013,05,01,06,40,1.90
2013,05,01,06,41,2.00
2013,05,01,06,42,2.00
2013,05,01,06,43,2.10
2013,05,01,06,44,2.20
2013,05,01,06,45,2.20
2013,05,01,06,46,2.30
2013,05,01,06,47,2.30
2013,05,01,06,48,2.40
2013,05,01,06,49,2.50
2013,05,01,06,50,2.50
2013,05,01,06,51,2.60
2013,05,01,06,52,2.60
2013,05,01,06,53,2.70
2013,05,01,06,54,2.70
2013,05,01,06,55,2.70
2013,05,01,06,56,2.70
2013,05,01,06,57,2.80
2013,05,01,06,58,2.80
2013,05,01,06,59,2.80
2013,05,01,07,00,2.80
2013,05,01,07,01,2.80
2013,05,01,07,02,2.90
2013,05,01,07,03,2.90
2013,05,01,07,04,2.80
2013,05,01,07,05,2.80
2013,05,01,07,06,2.80
2013,05,01,07,07,2.80
2013,05,01,07,08,2.90
2013,05,01,07,09,2.90
2013,05,01,07,10,3.00
2013,05,01,07,11,3.10
2013,05,01,07,12,3.20
2013,05,01,07,13,3.30
2013,05,01,07,14,3.30
2013,05,01,07,15,3.40
2013,05,01,07,16,3.50
2013,05,01,07,17,3.50
2013,05,01,07,18,3.60
2013,05,01,07,19,3.60
2013,05,01,07,20,3.70
2013,05,01,07,21,3.70
2013,05,01,07,22,3.80
2013,05,01,07,23,3.80
2013,05,01,07,24,3.80
2013,05,01,07,25,3.80
2013,05,01,07,26,3.80
2013,05,01,07,27,3.80
2013,05,01,07,28,3.80
2013,05,01,07,29,3.80
2013,05,01,07,30,3.80
2013,05,01,07,31,3.80
2013,05,01,07,32,3.80
2013,05,01,07,33,3.80
2013,05,01,07,34,3.80
2013,05,01,07,35,3.80
2013,05,01,07,36,3.90
2013,05,01,07,37,4.00
2013,05,01,07,38,4.00
2013,05,01,07,39,4.00
2013,05,01,07,40,4.10
2013,05,01,07,41,4.20
2013,05,01,07,42,4.20
2013,05,01,07,43,4.30
2013,05,01,07,44,4.40
2013,05,01,07,45,4.50
2013,05,01,07,46,4.50
2013,05,01,07,47,4.60
2013,05,01,07,48,4.60
2013,05,01,07,49,4.60
2013,05,01,07,50,4.70
2013,05,01,07,51,4.80
2013,05,01,07,52,4.90
2013,05,01,07,53,4.90
2013,05,01,07,54,5.00
2013,05,01,07,55,5.10
2013,05,01,07,56,5.10
2013,05,01,07,57,5.10
2013,05,01,07,58,5.20
2013,05,01,07,59,5.30
2013,05,01,08,00,5.30
2013,05,01,08,01,5.40
2013,05,01,08,02,5.50
2013,05,01,08,03,5.60
2013,05,01,08,04,5.70
2013,05,01,08,05,5.70
2013,05,01,08,06,5.80
2013,05,01,08,07,5.90
2013,05,01,08,08,6.00
2013,05,01,08,09,6.00
2013,05,01,08,10,6.10
2013,05,01,08,11,6.20
2013,05,01,08,12,6.30
2013,05,01,08,13,6.40
2013,05,01,08,14,6.50
2013,05,01,08,15,6.70
2013,05,01,08,16,6.80
2013,05,01,08,17,6.80
2013,05,01,08,18,7.00
2013,05,01,08,19,7.10
2013,05,01,08,20,7.30
2013,05,01,08,21,7.40
2013,05,01,08,22,7.60
2013,05,01,08,23,7.70
2013,05,01,08,24,7.80
2013,05,01,08,25,7.90
2013,05,01,08,26,8.10
2013,05,01,08,27,8.20
2013,05,01,08,28,8.20
2013,05,01,08,29,8.30
2013,05,01,08,30,8.40
2013,05,01,08,31,8.50
2013,05,01,08,32,8.60
2013,05,01,08,33,8.70
2013,05,01,08,34,8.80
2013,05,01,08,35,8.90
2013,05,01,08,36,9.00
2013,05,01,08,37,9.00
2013,05,01,08,38,9.10
2013,05,01,08,39,9.20
2013,05,01,08,40,9.30
2013,05,01,08,41,9.40
2013,05,01,08,42,9.50
2013,05,01,08,43,9.60
2013,05,01,08,44,9.70
2013,05,01,08,45,9.70
2013,05,01,08,46,9.80
2013,05,01,08,47,9.80
2013,05,01,08,48,9.90
2013,05,01,08,49,9.90
2013,05,01,08,50,10.00
2013,05,01,08,51,10.10
2013,05,01,08,52,10.20
2013,05,01,08,53,10.20
2013,05,01,08,54,10.30
2013,05,01,08,55,10.40
2013,05,01,08,56,10.30
2013,05,01,08,57,10.20
2013,05,01,08,58,10.10
2013,05,01,08,59,10.00
2013,05,01,09,00,9.90
2013,05,01,09,01,9.90
2013,05,01,09,02,9.90
2013,05,01,09,03,10.00
2013,05,01,09,04,10.10
2013,05,01,09,05,10.10
2013,05,01,09,06,10.10
2013,05,01,09,07,10.20
2013,05,01,09,08,10.20
2013,05,01,09,09,10.20
2013,05,01,09,10,10.30
2013,05,01,09,11,10.40
2013,05,01,09,12,10.40
2013,05,01,09,13,10.40
2013,05,01,09,14,10.50
2013,05,01,09,15,10.60
2013,05,01,09,16,10.60
2013,05,01,09,17,10.60
2013,05,01,09,18,10.60
2013,05,01,09,19,10.70
2013,05,01,09,20,10.80
2013,05,01,09,21,10.90
2013,05,01,09,22,10.90
2013,05,01,09,23,10.80
2013,05,01,09,24,10.80
2013,05,01,09,25,10.80
2013,05,01,09,26,10.80
2013,05,01,09,27,10.80
2013,05,01,09,28,10.70
2013,05,01,09,29,10.70
2013,05,01,09,30,10.70
2013,05,01,09,31,10.80
2013,05,01,09,32,10.70
2013,05,01,09,33,10.70
2013,05,01,09,34,10.80
2013,05,01,09,35,10.90
2013,05,01,09,36,10.90
2013,05,01,09,37,11.00
2013,05,01,09,38,11.10
2013,05,01,09,39,11.10
2013,05,01,09,40,11.00
2013,05,01,09,41,10.90
2013,05,01,09,42,10.90
2013,05,01,09,43,10.90
2013,05,01,09,44,10.90
2013,05,01,09,45,10.80
2013,05,01,09,46,10.80
2013,05,01,09,47,10.80
2013,05,01,09,48,10.80
2013,05,01,09,49,10.80
2013,05,01,09,50,10.80
2013,05,01,09,51,10.90
2013,05,01,09,52,10.90
2013,05,01,09,53,11.00
2013,05,01,09,54,11.10
2013,05,01,09,55,11.20
2013,05,01,09,56,11.20
2013,05,01,09,57,11.20
2013,05,01,09,58,11.20
2013,05,01,09,59,11.30
2013,05,01,10,00,11.30
2013,05,01,10,01,11.40
2013,05,01,10,02,11.40
2013,05,01,10,03,11.40
2013,05,01,10,04,11.40
2013,05,01,10,05,11.40
2013,05,01,10,06,11.50
2013,05,01,10,07,11.60
2013,05,01,10,08,11.60
2013,05,01,10,09,11.60
2013,05,01,10,10,11.50
2013,05,01,10,11,11.40
2013,05,01,10,12,11.40
2013,05,01,10,13,11.40
2013,05,01,10,14,11.60
2013,05,01,10,15,11.50
2013,05,01,10,16,11.40
2013,05,01,10,17,11.40
2013,05,01,10,18,11.30
2013,05,01,10,19,11.30
2013,05,01,10,20,11.30
2013,05,01,10,21,11.30
2013,05,01,10,22,11.40
2013,05,01,10,23,11.40
2013,05,01,10,24,11.40
2013,05,01,10,25,11.50
2013,05,01,10,26,11.60
2013,05,01,10,27,11.60
2013,05,01,10,28,11.70
2013,05,01,10,29,11.80
2013,05,01,10,30,11.80
2013,05,01,10,31,11.80
2013,05,01,10,32,11.90
2013,05,01,10,33,11.90
2013,05,01,10,34,11.90
2013,05,01,10,35,11.90
2013,05,01,10,36,11.90
2013,05,01,10,37,11.90
2013,05,01,10,38,11.90
2013,05,01,10,39,11.90
2013,05,01,10,40,11.90
2013,05,01,10,41,11.90
2013,05,01,10,42,11.80
2013,05,01,10,43,11.80
2013,05,01,10,44,11.80
2013,05,01,10,45,11.80
2013,05,01,10,46,11.80
2013,05,01,10,47,11.80
2013,05,01,10,48,11.90
2013,05,01,10,49,11.90
2013,05,01,10,50,11.90
2013,05,01,10,51,11.90
2013,05,01,10,52,11.90
2013,05,01,10,53,11.90
2013,05,01,10,54,11.90
2013,05,01,10,55,11.90
2013,05,01,10,56,11.90
2013,05,01,10,57,11.90
2013,05,01,10,58,11.90
2013,05,01,10,59,11.90
2013,05,01,11,00,11.90
2013,05,01,11,01,11.80
2013,05,01,11,02,11.70
2013,05,01,11,03,11.60
2013,05,01,11,04,11.60
2013,05,01,11,05,11.50
2013,05,01,11,06,11.40
2013,05,01,11,07,11.40
2013,05,01,11,08,11.40
2013,05,01,11,09,11.40
2013,05,01,11,10,11.50
2013,05,01,11,11,11.60
2013,05,01,11,12,11.70
2013,05,01,11,13,11.80
2013,05,01,11,14,11.80
2013,05,01,11,15,11.80
2013,05,01,11,16,12.00
2013,05,01,11,17,12.10
2013,05,01,11,18,12.20
2013,05,01,11,19,12.30
2013,05,01,11,20,12.20
2013,05,01,11,21,12.20
2013,05,01,11,22,12.30
2013,05,01,11,23,12.30
2013,05,01,11,24,12.40
2013,05,01,11,25,12.40
2013,05,01,11,26,12.40
2013,05,01,11,27,12.30
2013,05,01,11,28,12.30
2013,05,01,11,29,12.20
2013,05,01,11,30,12.10
2013,05,01,11,31,12.10
2013,05,01,11,32,12.20
2013,05,01,11,33,12.30
2013,05,01,11,34,12.30
2013,05,01,11,35,12.50
2013,05,01,11,36,12.60
2013,05,01,11,37,12.70
2013,05,01,11,38,12.80
2013,05,01,11,39,12.90
2013,05,01,11,40,13.00
2013,05,01,11,41,13.00
2013,05,01,11,42,13.00
2013,05,01,11,43,13.00
2013,05,01,11,44,13.00
2013,05,01,11,45,13.10
2013,05,01,11,46,13.10
2013,05,01,11,47,13.20
2013,05,01,11,48,13.20
2013,05,01,11,49,13.20
2013,05,01,11,50,13.20
2013,05,01,11,51,13.20
2013,05,01,11,52,13.20
2013,05,01,11,53,13.10
2013,05,01,11,54,13.10
2013,05,01,11,55,13.00
2013,05,01,11,56,13.00
2013,05,01,11,57,13.00
2013,05,01,11,58,12.90
2013,05,01,11,59,12.80
2013,05,01,12,00,12.70
2013,05,01,12,01,12.60
2013,05,01,12,02,12.50
2013,05,01,12,03,12.50
2013,05,01,12,04,12.50
2013,05,01,12,05,12.50
2013,05,01,12,06,12.50
2013,05,01,12,07,12.50
2013,05,01,12,08,12.40
2013,05,01,12,09,12.40
2013,05,01,12,10,12.40
2013,05,01,12,11,12.40
2013,05,01,12,12,12.30
2013,05,01,12,13,12.30
2013,05,01,12,14,12.30
2013,05,01,12,15,12.30
2013,05,01,12,16,12.40
2013,05,01,12,17,12.50
2013,05,01,12,18,12.50
2013,05,01,12,19,12.60
2013,05,01,12,20,12.60
2013,05,01,12,21,12.70
2013,05,01,12,22,12.80
2013,05,01,12,23,12.90
2013,05,01,12,24,13.00
2013,05,01,12,25,13.00
2013,05,01,12,26,12.90
2013,05,01,12,27,12.90
2013,05,01,12,28,12.80
2013,05,01,12,29,12.90
2013,05,01,12,30,12.90
2013,05,01,12,31,13.00
2013,05,01,12,32,13.10
2013,05,01,12,33,13.30
2013,05,01,12,34,13.30
2013,05,01,12,35,13.20
2013,05,01,12,36,13.10
2013,05,01,12,37,12.90
2013,05,01,12,38,12.80
2013,05,01,12,39,13.00
2013,05,01,12,40,13.00
2013,05,01,12,41,12.90
2013,05,01,12,42,12.80
2013,05,01,12,43,12.80
2013,05,01,12,44,12.90
2013,05,01,12,45,13.00
2013,05,01,12,46,13.10
2013,05,01,12,47,13.20
2013,05,01,12,48,13.40
2013,05,01,12,49,13.50
2013,05,01,12,50,13.60
2013,05,01,12,51,13.60
2013,05,01,12,52,13.70
2013,05,01,12,53,13.70
2013,05,01,12,54,13.60
2013,05,01,12,55,13.50
2013,05,01,12,56,13.50
2013,05,01,12,57,13.40
2013,05,01,12,58,13.30
2013,05,01,12,59,13.30
2013,05,01,13,00,13.30
2013,05,01,13,01,13.40
2013,05,01,13,02,13.40
2013,05,01,13,03,13.50
2013,05,01,13,04,13.60
2013,05,01,13,05,13.70
2013,05,01,13,06,13.80
2013,05,01,13,07,13.80
2013,05,01,13,08,13.80
2013,05,01,13,09,13.70
2013,05,01,13,10,13.70
2013,05,01,13,11,13.80
2013,05,01,13,12,13.90
2013,05,01,13,13,14.00
2013,05,01,13,14,14.00
2013,05,01,13,15,14.00
2013,05,01,13,16,13.80
2013,05,01,13,17,13.80
2013,05,01,13,18,13.80
2013,05,01,13,19,13.80
2013,05,01,13,20,13.80
2013,05,01,13,21,13.80
2013,05,01,13,22,13.90
2013,05,01,13,23,14.00
2013,05,01,13,24,14.00
2013,05,01,13,25,14.10
2013,05,01,13,26,14.20
2013,05,01,13,27,14.20
2013,05,01,13,28,14.30
2013,05,01,13,29,14.30
2013,05,01,13,30,14.10
2013,05,01,13,31,14.00
2013,05,01,13,32,13.90
2013,05,01,13,33,13.70
2013,05,01,13,34,13.60
2013,05,01,13,35,13.60
2013,05,01,13,36,13.50
2013,05,01,13,37,13.50
2013,05,01,13,38,13.50
2013,05,01,13,39,13.60
2013,05,01,13,40,13.70
2013,05,01,13,41,13.70
2013,05,01,13,42,13.90
2013,05,01,13,43,13.90
2013,05,01,13,44,14.00
2013,05,01,13,45,14.00
2013,05,01,13,46,14.00
2013,05,01,13,47,14.00
2013,05,01,13,48,13.90
2013,05,01,13,49,13.90
2013,05,01,13,50,13.90
2013,05,01,13,51,13.90
2013,05,01,13,52,13.90
2013,05,01,13,53,13.90
2013,05,01,13,54,14.00
2013,05,01,13,55,14.00
2013,05,01,13,56,14.00
2013,05,01,13,57,13.90
2013,05,01,13,58,14.00
2013,05,01,13,59,14.00
2013,05,01,14,00,14.20
2013,05,01,14,01,14.20
2013,05,01,14,02,14.20
2013,05,01,14,03,14.20
2013,05,01,14,04,14.30
2013,05,01,14,05,14.30
2013,05,01,14,06,14.50
2013,05,01,14,07,14.60
2013,05,01,14,08,14.70
2013,05,01,14,09,14.70
2013,05,01,14,10,14.70
2013,05,01,14,11,14.70
2013,05,01,14,12,14.60
2013,05,01,14,13,14.60
2013,05,01,14,14,14.50
2013,05,01,14,15,14.50
2013,05,01,14,16,14.30
2013,05,01,14,17,14.20
2013,05,01,14,18,14.20
2013,05,01,14,19,14.20
2013,05,01,14,20,14.20
2013,05,01,14,21,14.20
2013,05,01,14,22,14.20
2013,05,01,14,23,14.30
2013,05,01,14,24,14.30
2013,05,01,14,25,14.20
2013,05,01,14,26,14.10
2013,05,01,14,27,14.10
2013,05,01,14,28,14.10
2013,05,01,14,29,14.10
2013,05,01,14,30,14.10
2013,05,01,14,31,14.20
2013,05,01,14,32,14.10
2013,05,01,14,33,14.10
2013,05,01,14,34,14.10
2013,05,01,14,35,14.10
2013,05,01,14,36,14.10
2013,05,01,14,37,14.20
2013,05,01,14,38,14.20
2013,05,01,14,39,14.10
2013,05,01,14,40,14.10
2013,05,01,14,41,14.10
2013,05,01,14,42,14.10
2013,05,01,14,43,14.00
2013,05,01,14,44,14.00
2013,05,01,14,45,14.10
2013,05,01,14,46,14.00
2013,05,01,14,47,14.00
2013,05,01,14,48,14.10
2013,05,01,14,49,14.20
2013,05,01,14,50,14.10
2013,05,01,14,51,14.00
2013,05,01,14,52,14.00
2013,05,01,14,53,14.00
2013,05,01,14,54,14.00
2013,05,01,14,55,14.00
2013,05,01,14,56,14.00
2013,05,01,14,57,14.00
2013,05,01,14,58,14.10
2013,05,01,14,59,14.20
2013,05,01,15,00,14.20
2013,05,01,15,01,14.20
2013,05,01,15,02,14.20
2013,05,01,15,03,14.20
2013,05,01,15,04,14.20
2013,05,01,15,05,14.20
2013,05,01,15,06,14.20
2013,05,01,15,07,14.20
2013,05,01,15,08,14.20
2013,05,01,15,09,14.40
2013,05,01,15,10,14.60
2013,05,01,15,11,14.70
2013,05,01,15,12,14.80
2013,05,01,15,13,14.80
2013,05,01,15,14,14.80
2013,05,01,15,15,14.80
2013,05,01,15,16,14.80
2013,05,01,15,17,14.80
2013,05,01,15,18,14.80
2013,05,01,15,19,14.80
2013,05,01,15,20,14.80
2013,05,01,15,21,14.80
2013,05,01,15,22,14.80
2013,05,01,15,23,14.80
2013,05,01,15,24,14.70
2013,05,01,15,25,14.60
2013,05,01,15,26,14.50
2013,05,01,15,27,14.40
2013,05,01,15,28,14.40
2013,05,01,15,29,14.50
2013,05,01,15,30,14.50
2013,05,01,15,31,14.70
2013,05,01,15,32,14.80
2013,05,01,15,33,14.80
2013,05,01,15,34,14.80
2013,05,01,15,35,14.70
2013,05,01,15,36,14.70
2013,05,01,15,37,14.70
2013,05,01,15,38,14.70
2013,05,01,15,39,14.60
2013,05,01,15,40,14.60
2013,05,01,15,41,14.60
2013,05,01,15,42,14.50
2013,05,01,15,43,14.50
2013,05,01,15,44,14.50
2013,05,01,15,45,14.50
2013,05,01,15,46,14.60
2013,05,01,15,47,14.70
2013,05,01,15,48,14.80
2013,05,01,15,49,14.70
2013,05,01,15,50,14.70
2013,05,01,15,51,14.80
2013,05,01,15,52,14.80
2013,05,01,15,53,14.70
2013,05,01,15,54,14.70
2013,05,01,15,55,14.70
2013,05,01,15,56,14.80
2013,05,01,15,57,14.70
2013,05,01,15,58,14.70
2013,05,01,15,59,14.70
2013,05,01,16,00,14.80
2013,05,01,16,01,14.80
2013,05,01,16,02,14.80
2013,05,01,16,03,14.80
2013,05,01,16,04,14.90
2013,05,01,16,05,15.00
2013,05,01,16,06,15.00
2013,05,01,16,07,15.10
2013,05,01,16,08,15.20
2013,05,01,16,09,15.10
2013,05,01,16,10,15.10
2013,05,01,16,11,15.10
2013,05,01,16,12,15.10
2013,05,01,16,13,15.10
2013,05,01,16,14,15.10
2013,05,01,16,15,15.10
2013,05,01,16,16,15.10
2013,05,01,16,17,15.00
2013,05,01,16,18,15.00
2013,05,01,16,19,15.10
2013,05,01,16,20,15.10
2013,05,01,16,21,15.00
2013,05,01,16,22,14.90
2013,05,01,16,23,14.90
2013,05,01,16,24,14.90
2013,05,01,16,25,14.90
2013,05,01,16,26,14.80
2013,05,01,16,27,14.80
2013,05,01,16,28,14.80
2013,05,01,16,29,14.80
2013,05,01,16,30,14.90
2013,05,01,16,31,14.90
2013,05,01,16,32,14.90
2013,05,01,16,33,14.90
2013,05,01,16,34,14.90
2013,05,01,16,35,14.90
2013,05,01,16,36,14.90
2013,05,01,16,37,14.80
2013,05,01,16,38,14.80
2013,05,01,16,39,14.80
2013,05,01,16,40,14.70
2013,05,01,16,41,14.70
2013,05,01,16,42,14.60
2013,05,01,16,43,14.60
2013,05,01,16,44,14.50
2013,05,01,16,45,14.50
2013,05,01,16,46,14.50
2013,05,01,16,47,14.50
2013,05,01,16,48,14.50
2013,05,01,16,49,14.50
2013,05,01,16,50,14.40
2013,05,01,16,51,14.30
2013,05,01,16,52,14.20
2013,05,01,16,53,14.30
2013,05,01,16,54,14.30
2013,05,01,16,55,14.30
2013,05,01,16,56,14.20
2013,05,01,16,57,14.20
2013,05,01,16,58,14.10
2013,05,01,16,59,14.10
2013,05,01,17,00,14.00
2013,05,01,17,01,14.00
2013,05,01,17,02,14.00
2013,05,01,17,03,13.90
2013,05,01,17,04,13.80
2013,05,01,17,05,13.70
2013,05,01,17,06,13.70
2013,05,01,17,07,13.80
2013,05,01,17,08,13.90
2013,05,01,17,09,13.90
2013,05,01,17,10,13.90
2013,05,01,17,11,13.90
2013,05,01,17,12,13.90
2013,05,01,17,13,13.90
2013,05,01,17,14,14.00
2013,05,01,17,15,14.00
2013,05,01,17,16,14.00
2013,05,01,17,17,13.90
2013,05,01,17,18,13.90
2013,05,01,17,19,13.80
2013,05,01,17,20,13.80
2013,05,01,17,21,13.80
2013,05,01,17,22,13.80
2013,05,01,17,23,13.90
2013,05,01,17,24,13.80
2013,05,01,17,25,13.70
2013,05,01,17,26,13.70
2013,05,01,17,27,13.70
2013,05,01,17,28,13.70
2013,05,01,17,29,13.80
2013,05,01,17,30,13.80
2013,05,01,17,31,13.80
2013,05,01,17,32,13.80
2013,05,01,17,33,13.70
2013,05,01,17,34,13.70
2013,05,01,17,35,13.70
2013,05,01,17,36,13.70
2013,05,01,17,37,13.70
2013,05,01,17,38,13.70
2013,05,01,17,39,13.70
2013,05,01,17,40,13.70
2013,05,01,17,41,13.80
2013,05,01,17,42,13.90